Terug naar catalogus

STARLINK-34664

ActiefCommunicatieVLEO
NORAD 64806·PAYLOAD·🇺🇸 United States

Gelanceerd Jul 16, 2025 vanaf Vandenberg Space Force Base

Loading…

Volgende Passages (komende 24 uur)

TLE

VersSource: CelesTrak SupGP

Epoch: Sep 14, 2026, 22:59 UTC

1 64806C 25150S   26257.95812500 -.00052683  00000+0 -44153-2 0  2570
2 64806  70.0028  17.0480 0003094 271.7963  33.6156 14.98355114    10

Volg STARLINK-34664 in realtime met AllMySat

Download on the App Store